Terminal Aerodrome Forecast
Issued by NWS Mt. Holly, NJ

Home | Current Version | Previous Version | Text Only | Print | Product List | Glossary On
Versions: 1 2 3 4 5 6 7 8 9 10 11 12 13 14 15 16 17 18 19 20 21 22 23 24 25 26 27 28 29 30 31 32 33 34 35 36 37 38 39 40 41 42 43 44 45 46 47 48 49 50
000
FTAK31 PANC 050536
TAFABE
TAF
PABE 050536Z 0506/0606 18011KT 1SM -SN SCT005 OVC025
      TEMPO 0506/0510 BKN005
     FM051300 23008KT P6SM VCSH BKN012
     FM051800 24006KT 5SM BR SCT015 OVC025
     FM060400 21006KT P6SM SCT025 BKN080=

USA.gov is the U.S. government's official web portal to all federal, state and local government web resources and services.